This is the latest recevied weather packets stored in our database for station/object WW5JC. If no packets are shown the sender has not sent any weather packets the latest 10 day(s).
| Time | Temp. | Humidity | Pressure | Rain* | Wind** | Luminosity | Snow |
|---|---|---|---|---|---|---|---|
| 1777644508 | 13.33° C | 92% | 1019.7 hPa | 0 mm | - | 89 W/m² | - |
| 1777644204 | 13.33° C | 92% | 1019.9 hPa | 0 mm | - | 88 W/m² | - |
| 1777643900 | 13.33° C | 92% | 1019.7 hPa | 0 mm | - | 73 W/m² | - |
| 1777643598 | 13.33° C | 92% | 1019.7 hPa | 0 mm | - | 62 W/m² | - |
| 1777643295 | 13.33° C | 93% | 1020 hPa | 0 mm | - | 63 W/m² | - |
| 1777642991 | 13.33° C | 92% | 1019.7 hPa | 0 mm | - | 74 W/m² | - |
| 1777642682 | 13.33° C | 93% | 1019.7 hPa | 0 mm | - | 69 W/m² | - |
| 1777642380 | 12.78° C | 94% | 1019.6 hPa | 0 mm | - | 57 W/m² | - |
| 1777642076 | 12.78° C | 94% | 1019.3 hPa | 0 mm | - | 48 W/m² | - |
| 1777641772 | 12.78° C | 94% | 1019.3 hPa | 0 mm | - | 36 W/m² | - |
| 1777641472 | 12.78° C | 95% | 1019 hPa | 0 mm | - | 44 W/m² | - |
| 1777641167 | 12.78° C | 95% | 1019 hPa | 0 mm | - | 58 W/m² | - |
| 1777640863 | 12.78° C | 94% | 1019.3 hPa | 0 mm | - | 37 W/m² | - |
| 1777640561 | 12.78° C | 94% | 1018.9 hPa | 0 mm | - | 48 W/m² | - |
| 1777640257 | 12.78° C | 94% | 1019.1 hPa | 0 mm | - | 50 W/m² | - |
| 1777639954 | 12.22° C | 93% | 1018.9 hPa | 0 mm | - | 54 W/m² | - |
| 1777639651 | 12.22° C | 93% | 1018.7 hPa | 0 mm | - | 42 W/m² | - |
| 1777639349 | 12.22° C | 94% | 1018.7 hPa | 0 mm | - | 37 W/m² | - |
| 1777639043 | 12.22° C | 94% | 1018.5 hPa | 0 mm | - | 33 W/m² | - |
| 1777638740 | 12.22° C | 94% | 1018.4 hPa | 0 mm | - | 32 W/m² | - |
| 1777638437 | 12.22° C | 93% | 1018.4 hPa | 0 mm | - | 28 W/m² | - |
| 1777638135 | 12.22° C | 93% | 1018.6 hPa | 0 mm | - | 27 W/m² | - |
| 1777637830 | 12.22° C | 93% | 1018.7 hPa | 0 mm | - | 26 W/m² | - |
| 1777637527 | 12.22° C | 94% | 1018.5 hPa | 0 mm | - | 21 W/m² | - |
| 1777637224 | 12.22° C | 93% | 1018.5 hPa | 0 mm | - | 14 W/m² | - |
* Rain latest hour (hover to see other rain measurements)
** Current wind speed in m/s (hover to see current wind gust speed)